Temperature
10 10 10 10 10 10 10 10 9 9 9 9 9 9 9 9 9 9 9 9 9 9 9 9 9 9 9 9 9 10 10 10 10 10 10 10 10 10 10 10 10 10 9
10 10 10 10 9 9 9 9 9 9 9 9 9 9 9 9 9 9 9 9 9 9 9 9 9 8 8 9 9 9 9 9 9 9 9 9 9 9 9 9 9 9 9
9 9 9 9 9 9 9 9 8 8 8 8 8 8 8 8 8 8 8 8 8 8 8 8 8 8 8 8 8 8 8 9 9 9 9 9 9 9 9 9 9 9 9
9 9 9 9 9 9 9 8 8 8 8 8 8 8 8 8 8 8 8 8 8 8 8 8 8 8 8 8 7 8 8 8 8 8 8 8 8 9 8 8 8 9 9
9 8 8 8 8 8 8 8 8 8 8 8 7 7 7 8 8 8 8 8 8 8 8 8 8 8 7 7 7 7 7 7 7 8 8 8 8 8 8 8 8 8 8
8 8 8 8 8 8 8 7 7 7 7 7 7 7 7 7 7 7 7 7 7 7 7 7 7 7 7 7 7 7 7 7 7 7 7 7 7 7 8 8 8 7 7
8 8 7 7 7 7 7 7 7 7 7 7 6 6 6 6 6 7 7 7 7 7 7 7 7 7 7 7 7 7 7 7 7 7 7 7 7 7 7 7 7 7 7
7 7 7 7 7 7 7 6 6 6 6 6 6 5 5 5 6 6 6 6 6 6 6 6 6 6 7 7 6 6 6 6 6 6 6 6 6 6 6 6 6 6 6
7 6 6 6 6 6 6 6 6 6 6 6 6 5 5 5 5 5 5 6 6 6 6 6 6 6 6 6 6 6 6 6 6 5 5 5 5 5 5 5 5 5 5
6 6 6 6 6 6 6 5 5 5 5 5 5 5 5 5 5 4 5 5 5 5 5 5 5 5 5 5 6 5 5 5 5 5 5 5 5 5 5 5 5 5 5
5 5 5 5 5 5 5 5 5 5 5 5 5 5 5 5 4 4 4 4 4 5 5 5 5 5 5 5 5 5 5 5 5 5 5 5 4 5 5 4 4 4 4
5 5 5 5 5 5 4 4 4 4 4 4 4 5 5 4 4 4 4 4 4 4 4 4 4 4 4 4 4 4 4 4 4 4 4 4 4 4 4 4 4 4 4
5 5 4 4 4 4 4 4 4 4 4 4 4 4 4 4 4 4 4 3 3 3 3 3 4 4 4 4 4 4 4 4 4 4 4 4 4 4 3 3 3 3 3
4 4 4 4 4 4 4 4 4 3 3 3 3 3 4 4 3 3 3 3 3 3 3 3 3 3 3 3 3 3 3 3 3 3 3 3 3 3 3 3 3 3 3
3 3 3 3 3 3 3 3 3 3 3 3 3 3 3 3 3 3 3 3 2 2 2 2 2 2 2 2 3 2 2 3 3 3 3 3 2 2 2 2 2 2 2
3 3 3 3 3 3 3 3 3 3 3 3 2 2 2 2 2 2 2 2 2 2 1 2 2 2 2 2 2 2 2 2 2 2 2 2 2 2 2 2 2 2 2
2 2 2 2 2 2 2 2 2 2 2 2 2 2 2 2 2 2 2 2 1 1 1 1 1 1 1 1 1 1 1 1 1 1 1 1 1 1 1 1 1 1 1
1 1 1 1 2 2 2 2 2 2 2 2 1 1 1 1 1 1 1 1 1 1 1 1 0 1 1 1 0 0 1 1 1 1 0 0 0 0 0 1 1 1 1
1 1 1 1 1 1 1 1 1 1 1 1 1 1 1 1 1 1 1 1 0 0 0 -0 -0 -0 -0 -0 -0 -0 -0 -0 -0 -0 -0 -0 -0 -0 -0 -0 -0 -0 -0
0 0 0 0 0 0 0 0 0 0 0 0 0 0 0 0 0 0 0 0 -0 -0 -1 -1 -1 -1 -1 -1 -1 -1 -1 -1 -1 -1 -1 -1 -1 -1 -1 -1 -1 -1 -1
-0 -0 -0 -0 -0 -0 -0 -0 -0 -0 -0 -0 -0 -0 -0 -0 -0 -0 -1 -1 -1 -1 -1 -1 -1 -1 -1 -2 -2 -2 -2 -2 -2 -2 -2 -2 -1 -1 -1 -1 -1 -1 -1
-1 -1 -1 -1 -1 -1 -1 -1 -1 -1 -1 -1 -1 -1 -1 -1 -1 -1 -1 -1 -1 -1 -2 -2 -2 -2 -1 -2 -2 -2 -2 -3 -3 -2 -2 -2 -2 -2 -2 -2 -2 -2 -2
-2 -2 -2 -2 -1 -1 -1 -1 -2 -2 -2 -2 -2 -1 -1 -1 -1 -1 -1 -2 -2 -2 -2 -2 -2 -2 -2 -2 -2 -3 -3 -3 -3 -3 -3 -3 -3 -3 -2 -2 -2 -2 -2
-2 -2 -2 -2 -2 -2 -2 -2 -2 -2 -2 -2 -2 -2 -2 -2 -2 -2 -2 -2 -2 -2 -2 -2 -2 -2 -2 -2 -3 -3 -3 -3 -4 -4 -4 -4 -3 -3 -3 -3 -3 -3 -3
-3 -3 -3 -3 -3 -3 -3 -3 -3 -3 -3 -3 -3 -3 -3 -3 -3 -3 -3 -3 -3 -3 -3 -3 -3 -3 -3 -3 -3 -4 -4 -4 -4 -4 -4 -4 -4 -4 -4 -3 -3 -3 -4
-4 -4 -4 -4 -4 -4 -4 -3 -3 -3 -3 -3 -3 -3 -3 -3 -3 -3 -4 -4 -4 -3 -3 -3 -4 -4 -4 -4 -4 -4 -4 -4 -4 -5 -4 -5 -4 -4 -4 -4 -4 -4 -4
Wind_Speed
5 5 6 6 6 7 6 6 6 7 7 8 8 8 8 10 10 9 8 9 9 9 9 9 9 10 10 10 11 11 11 11 11 11 11 11 11 11 11 11 12 12 12
6 5 5 5 6 6 6 6 6 6 6 7 7 8 8 9 9 9 8 7 8 9 8 8 8 9 9 9 10 10 10 10 10 11 10 10 10 10 10 10 10 11 11
7 6 5 4 5 7 7 6 6 7 6 6 6 7 7 7 7 8 7 7 7 8 8 7 7 8 8 8 9 9 9 9 9 9 10 10 10 10 10 10 10 10 9
7 6 4 4 6 7 6 5 4 4 4 3 3 4 5 6 7 7 6 6 7 6 6 6 6 6 7 7 7 8 8 7 8 7 8 8 9 9 9 9 10 9 9
7 6 5 5 6 5 5 4 3 3 4 4 3 3 4 4 4 5 5 6 7 7 6 6 6 6 6 6 6 6 6 6 6 6 6 7 7 7 7 8 9 9 9
7 7 6 5 6 4 3 4 3 3 3 4 4 4 2 3 3 4 4 5 6 6 5 5 5 5 5 5 5 5 4 5 5 5 5 5 5 6 6 6 7 7 7
7 7 5 5 4 3 3 4 4 4 3 3 3 2 2 2 2 3 3 4 4 4 5 5 5 4 4 4 4 4 3 3 4 4 3 4 4 4 4 5 5 5 5
7 6 5 4 4 4 4 4 4 3 2 2 3 3 1 0 1 1 1 2 3 4 3 3 4 4 4 4 3 3 3 2 2 2 3 3 3 3 3 3 3 3 4
6 6 6 5 5 4 4 4 4 4 3 2 2 3 3 3 1 0 1 1 2 2 2 2 2 3 3 4 3 2 2 1 1 1 2 2 2 2 1 1 2 2 3
6 6 6 6 5 4 4 4 3 3 4 4 2 1 1 3 3 2 1 0 0 1 1 1 1 2 3 3 3 2 1 0 0 0 1 1 1 1 1 0 0 1 1
5 6 6 6 5 5 5 4 3 3 3 3 3 2 2 1 2 3 3 1 1 1 1 2 2 3 4 4 4 3 2 1 2 2 2 2 2 2 2 2 1 1 1
3 5 5 5 5 5 5 5 5 4 4 3 3 3 3 4 3 3 3 3 2 2 1 2 3 3 4 5 4 4 3 3 3 4 4 4 4 3 3 3 2 2 2
3 4 4 5 5 5 6 6 5 5 5 5 4 3 3 3 3 2 3 2 1 1 2 2 3 4 4 5 5 5 5 4 5 5 5 5 4 4 4 4 3 3 3
3 4 5 5 5 6 6 6 5 5 5 5 5 4 3 3 3 3 3 3 2 1 2 3 2 5 5 6 6 6 6 6 6 6 6 6 5 5 5 4 4 3 3
2 4 4 5 5 5 6 6 5 5 5 5 5 5 4 3 3 3 3 4 4 4 4 4 2 3 6 6 7 6 6 7 7 7 6 6 5 5 5 4 5 4 4
2 3 4 4 5 5 5 5 4 5 6 5 5 5 5 4 4 3 4 3 3 4 4 3 3 2 4 5 7 6 7 8 8 8 7 7 6 5 6 5 5 5 6
3 3 3 4 5 5 5 5 5 5 6 6 5 6 6 5 4 4 4 3 3 3 4 3 1 2 3 3 4 6 7 7 7 9 9 8 8 7 7 6 6 6 7
2 3 3 3 4 5 5 6 6 6 6 7 7 7 6 5 6 5 4 5 4 4 4 4 2 2 3 4 4 4 5 6 7 9 10 10 9 8 8 8 7 7 7
3 3 3 4 4 5 6 6 6 7 6 7 7 7 7 7 7 5 6 6 5 4 4 4 3 3 2 3 3 3 3 4 6 7 8 10 10 9 9 9 8 7 8
3 4 3 3 4 4 5 5 5 6 6 6 6 7 7 8 8 7 7 7 5 5 4 4 4 3 3 3 3 3 3 3 3 5 6 8 9 10 10 10 9 8 8
2 2 3 3 3 4 5 5 5 5 5 6 6 6 7 8 9 8 7 7 6 5 5 5 5 4 4 3 4 3 4 3 3 3 3 5 6 7 8 10 10 9 9
2 2 3 3 4 4 6 7 6 6 6 6 6 6 6 7 8 10 10 11 10 9 8 7 6 6 6 5 4 4 3 3 3 3 3 4 5 4 7 8 10 10 10
2 3 3 3 4 5 6 7 7 5 5 6 6 6 5 6 7 6 7 8 9 11 11 9 8 8 7 7 6 5 5 5 5 3 3 5 3 5 7 9 10 10 10
3 3 4 3 3 4 6 7 7 4 4 5 6 6 6 6 6 6 5 5 6 6 8 7 7 7 6 7 7 7 6 4 3 2 3 4 4 4 5 7 10 11 11
2 3 3 3 3 4 6 6 5 3 3 4 5 5 6 6 8 9 6 6 5 5 6 8 8 8 9 9 8 4 4 4 4 3 2 3 3 3 3 4 9 11 11
3 3 3 3 4 4 6 6 5 3 3 3 3 4 7 8 9 9 7 6 7 5 4 4 4 5 6 7 9 7 6 5 4 3 3 3 2 1 2 2 4 6 8
Wind_Direction
100 99 97 97 96 98 95 93 91 85 79 74 73 73 74 77 81 80 77 81 89 92 97 100 101 98 94 94 91 88 88 85 82 81 79 76 73 74 76 74 71 67 66
103 101 98 96 95 96 93 95 95 89 83 78 72 69 69 76 83 82 77 74 84 90 95 98 104 105 101 99 97 93 91 88 85 82 81 78 74 73 74 74 73 71 69
108 107 106 99 103 110 105 97 96 95 90 80 75 71 68 73 84 85 82 78 82 86 88 94 101 105 106 103 102 98 95 93 89 85 81 78 76 74 71 73 74 73 71
112 112 109 107 113 114 110 109 108 107 102 95 84 73 70 71 78 83 84 87 87 85 85 90 94 98 102 104 105 103 99 95 90 86 85 83 79 74 70 71 72 71 69
122 119 115 113 117 117 117 118 107 116 115 104 95 76 67 64 69 84 85 84 88 89 89 90 93 95 95 98 101 103 101 100 94 89 86 85 83 83 78 73 70 69 67
131 125 127 128 125 128 129 123 122 107 117 117 98 78 63 69 68 76 83 84 89 93 95 101 103 101 94 89 88 94 99 107 105 97 88 88 84 82 83 81 73 68 64
139 136 134 133 132 139 143 138 133 123 123 121 104 88 47 59 74 60 74 91 89 91 92 99 104 110 109 100 88 85 93 101 113 112 101 100 92 86 87 84 78 70 62
149 146 140 147 142 140 149 155 142 140 148 151 140 140 134 21 5 47 75 86 96 92 89 98 109 110 112 108 104 93 80 80 93 116 126 121 110 94 89 81 70 63 56
157 156 157 153 151 156 165 173 164 154 167 189 159 154 161 190 174 229 154 107 100 94 102 106 121 129 128 125 128 119 97 76 66 89 144 139 134 120 98 76 62 56 49
162 161 163 162 164 166 170 182 172 172 167 184 191 175 152 144 159 179 241 211 133 143 142 138 150 163 154 144 149 145 139 149 240 289 222 201 187 173 183 217 34 5 12
161 162 164 165 169 169 172 177 176 190 188 190 184 173 157 140 156 172 198 217 259 240 185 169 178 184 180 169 166 176 188 223 258 261 259 253 247 247 245 242 241 272 293
167 166 168 168 171 170 176 181 182 193 201 205 202 183 176 173 184 177 187 197 217 242 231 193 184 187 187 177 185 190 204 231 254 264 262 265 268 262 254 253 248 260 269
184 190 181 176 176 179 181 180 186 198 200 203 209 205 201 198 180 179 176 188 213 246 222 230 197 196 198 187 194 203 214 232 247 259 261 261 268 267 260 255 248 266 275
198 189 186 181 183 182 185 180 187 197 198 207 213 203 200 202 188 184 182 172 190 233 228 230 221 195 198 199 208 212 216 229 242 251 256 257 263 271 261 249 247 249 262
211 189 187 185 183 184 184 180 193 199 199 204 210 203 201 205 194 191 188 183 187 211 237 222 214 201 201 204 209 210 219 230 238 246 250 249 252 267 252 250 251 253 258
196 190 190 193 188 189 188 189 197 197 204 205 205 201 203 207 198 191 198 205 208 206 234 222 221 208 195 212 221 214 221 229 235 239 242 241 241 257 248 240 247 251 255
198 196 196 200 193 192 194 195 203 202 203 206 210 203 207 204 203 203 202 208 218 209 230 255 242 206 198 212 224 221 225 225 230 233 236 236 237 243 249 240 244 250 253
204 202 196 201 205 197 197 199 204 207 207 207 209 204 208 205 204 204 202 209 218 214 213 229 232 213 213 212 210 218 226 225 230 233 234 235 237 240 247 239 244 250 255
200 207 201 205 214 208 205 207 206 207 211 212 209 207 209 203 211 210 207 211 217 221 212 214 223 216 219 204 204 226 236 231 236 235 235 238 240 243 246 238 238 240 249
205 208 209 210 219 219 213 211 210 208 210 216 214 212 211 210 212 208 210 211 211 212 211 210 212 213 213 209 194 210 237 234 246 237 241 245 246 248 246 239 236 238 246
223 215 206 211 218 224 216 207 208 210 215 217 216 216 215 217 220 216 215 207 201 206 207 212 213 209 207 199 209 208 224 234 248 231 240 244 243 246 243 238 237 242 246
216 216 212 211 217 236 233 225 219 208 215 217 217 220 221 221 225 228 227 221 212 208 208 212 216 212 213 209 203 207 211 221 250 220 226 249 227 238 237 233 242 246 247
210 222 229 224 225 233 240 231 231 222 216 220 218 216 224 222 219 215 223 230 233 230 221 211 213 215 209 204 199 209 217 229 241 219 217 250 234 244 240 240 246 249 251
223 228 233 234 241 246 246 240 231 223 221 226 218 214 216 216 212 210 210 217 226 230 230 221 216 217 210 203 199 207 215 230 258 232 203 246 244 248 246 244 246 249 253
239 240 236 231 238 250 250 245 232 220 228 233 226 217 215 213 219 219 211 215 227 237 241 235 231 228 226 219 208 196 204 217 246 240 208 231 253 266 258 243 246 249 252
234 238 245 240 240 246 250 247 230 212 228 238 231 225 226 222 223 221 211 209 221 226 221 230 230 231 224 215 214 209 207 215 233 242 207 205 229 252 269 251 235 241 251
Height
1539 1540 1542 1544 1545 1547 1548 1550 1551 1553 1554 1555 1557 1558 1559 1560 1561 1562 1563 1564 1565 1566 1567 1568 1568 1569 1570 1570 1571 1571 1572 1572 1573 1574 1574 1574 1575 1575 1575 1575 1576 1576 1576
1537 1539 1541 1542 1544 1545 1547 1548 1550 1552 1553 1554 1556 1557 1558 1559 1561 1562 1563 1564 1565 1566 1567 1568 1568 1569 1570 1570 1571 1571 1572 1572 1573 1573 1574 1574 1574 1575 1575 1575 1576 1576 1576
1535 1537 1539 1540 1542 1544 1545 1547 1548 1550 1552 1553 1554 1556 1558 1559 1560 1561 1562 1564 1565 1566 1567 1568 1568 1569 1569 1570 1570 1571 1571 1572 1572 1573 1573 1574 1574 1574 1575 1575 1575 1575 1575
1533 1535 1537 1538 1540 1541 1543 1545 1546 1548 1550 1552 1553 1555 1556 1558 1559 1560 1562 1563 1564 1565 1566 1567 1568 1568 1569 1569 1570 1570 1571 1571 1572 1572 1573 1573 1573 1574 1574 1574 1574 1575 1575
1530 1532 1534 1536 1538 1539 1540 1542 1544 1546 1548 1550 1552 1553 1555 1556 1558 1559 1560 1562 1563 1564 1565 1566 1567 1567 1568 1569 1569 1570 1570 1570 1571 1571 1572 1572 1572 1572 1573 1573 1573 1574 1574
1527 1529 1532 1533 1535 1537 1538 1540 1542 1544 1546 1548 1549 1551 1553 1555 1556 1557 1559 1560 1562 1563 1564 1565 1565 1566 1567 1567 1568 1569 1569 1569 1570 1570 1570 1571 1571 1571 1571 1572 1572 1572 1572
1524 1526 1528 1530 1532 1534 1536 1538 1540 1541 1543 1545 1547 1549 1551 1553 1554 1555 1557 1558 1560 1561 1562 1563 1564 1565 1565 1566 1566 1567 1568 1568 1568 1568 1569 1569 1569 1570 1570 1570 1570 1570 1571
1521 1522 1525 1527 1529 1531 1533 1535 1536 1538 1540 1542 1544 1546 1548 1551 1552 1553 1554 1556 1557 1559 1560 1561 1562 1563 1563 1564 1565 1565 1566 1566 1567 1567 1567 1567 1568 1568 1568 1568 1568 1568 1568
1517 1519 1521 1524 1526 1528 1530 1532 1533 1535 1537 1539 1541 1544 1545 1546 1548 1550 1551 1553 1554 1556 1557 1558 1559 1560 1561 1562 1562 1563 1564 1564 1564 1565 1565 1565 1565 1566 1566 1566 1566 1566 1566
1513 1516 1518 1520 1522 1524 1526 1528 1530 1532 1534 1535 1537 1540 1542 1543 1545 1546 1548 1549 1551 1552 1554 1555 1556 1557 1558 1559 1560 1561 1561 1562 1562 1563 1563 1563 1563 1563 1564 1564 1564 1563 1563
1509 1511 1513 1516 1518 1520 1522 1524 1526 1528 1530 1532 1533 1535 1538 1540 1541 1542 1543 1545 1547 1549 1550 1552 1553 1554 1555 1556 1557 1557 1558 1559 1559 1560 1560 1560 1560 1560 1561 1561 1561 1561 1561
1504 1507 1509 1511 1513 1515 1518 1520 1522 1525 1527 1528 1530 1531 1533 1535 1537 1538 1539 1541 1542 1544 1546 1547 1549 1550 1551 1552 1553 1554 1555 1555 1556 1556 1557 1557 1557 1557 1558 1558 1558 1558 1557
1499 1502 1504 1506 1508 1511 1513 1516 1518 1520 1522 1524 1526 1527 1529 1531 1533 1535 1536 1537 1538 1540 1542 1543 1544 1546 1547 1548 1549 1550 1551 1551 1552 1552 1553 1553 1553 1553 1554 1554 1554 1554 1554
1494 1497 1499 1501 1504 1506 1508 1511 1513 1515 1517 1519 1521 1523 1524 1526 1529 1530 1532 1533 1534 1535 1537 1538 1540 1541 1543 1544 1545 1545 1546 1547 1548 1548 1549 1549 1549 1549 1549 1549 1550 1550 1550
1490 1492 1494 1496 1499 1501 1504 1506 1508 1510 1512 1514 1516 1518 1519 1522 1524 1525 1527 1529 1531 1531 1531 1533 1535 1536 1538 1539 1540 1541 1542 1542 1543 1543 1544 1544 1545 1545 1545 1545 1545 1545 1545
1486 1487 1489 1491 1493 1496 1498 1500 1502 1505 1507 1509 1511 1513 1514 1517 1518 1520 1522 1524 1526 1527 1526 1527 1530 1532 1533 1534 1535 1536 1537 1538 1538 1538 1539 1540 1540 1540 1540 1540 1541 1541 1541
1480 1482 1483 1486 1488 1490 1492 1494 1496 1499 1501 1503 1505 1507 1509 1511 1513 1515 1516 1518 1520 1522 1522 1523 1525 1526 1528 1529 1530 1531 1531 1532 1532 1533 1534 1535 1535 1535 1535 1535 1536 1536 1536
1475 1477 1479 1480 1482 1484 1486 1488 1490 1493 1495 1497 1499 1501 1503 1505 1507 1509 1511 1512 1514 1516 1517 1518 1519 1521 1522 1523 1524 1525 1526 1526 1527 1528 1528 1529 1530 1530 1530 1530 1530 1531 1531
1470 1472 1474 1475 1477 1479 1480 1482 1484 1486 1489 1491 1493 1495 1497 1499 1501 1503 1505 1506 1508 1510 1512 1513 1513 1515 1516 1518 1519 1520 1520 1521 1521 1522 1523 1523 1524 1524 1524 1524 1525 1525 1525
1465 1467 1468 1470 1471 1473 1475 1477 1479 1480 1483 1485 1487 1489 1491 1493 1495 1497 1498 1500 1502 1504 1506 1507 1508 1509 1511 1512 1513 1513 1514 1515 1515 1516 1517 1517 1517 1518 1518 1519 1519 1519 1520
1461 1462 1463 1465 1467 1468 1470 1471 1473 1475 1477 1479 1481 1483 1485 1487 1489 1491 1493 1494 1496 1498 1499 1501 1502 1503 1504 1506 1507 1508 1508 1509 1509 1510 1511 1511 1511 1511 1512 1512 1512 1513 1513
1456 1457 1458 1460 1461 1462 1464 1466 1468 1469 1471 1473 1475 1477 1479 1481 1483 1484 1486 1488 1490 1491 1492 1494 1495 1496 1497 1500 1501 1502 1502 1503 1503 1505 1505 1505 1505 1505 1505 1506 1506 1507 1507
1451 1452 1454 1455 1455 1457 1459 1461 1463 1464 1465 1467 1469 1470 1472 1474 1477 1478 1480 1482 1484 1485 1487 1488 1489 1489 1492 1494 1495 1496 1496 1497 1497 1498 1499 1498 1499 1499 1499 1500 1500 1501 1501
1446 1447 1448 1450 1451 1452 1454 1456 1458 1459 1460 1462 1463 1465 1466 1468 1470 1472 1474 1476 1477 1479 1480 1482 1483 1484 1486 1488 1489 1490 1490 1491 1492 1492 1493 1492 1492 1493 1493 1493 1494 1495 1495
1441 1442 1444 1445 1447 1448 1449 1451 1452 1453 1455 1456 1458 1459 1461 1463 1465 1467 1468 1470 1471 1472 1474 1476 1477 1479 1480 1482 1483 1484 1485 1485 1484 1485 1487 1487 1487 1487 1487 1487 1488 1488 1489
1438 1439 1440 1441 1442 1443 1445 1446 1448 1449 1450 1451 1453 1454 1456 1458 1459 1461 1462 1463 1464 1466 1468 1469 1471 1472 1474 1475 1477 1478 1479 1479 1479 1479 1480 1482 1481 1482 1480 1480 1481 1482 1482